Tracking 18186 objects as of 29-March-2017
HD Live streaming from Space Station
objects crossing your sky now

FTV 3502

Track FTV 3502 now!
10-day predictions
FTV 3502 is classified as:


NORAD ID: 369
Int'l Code: 1962-039A
Perigee: 560.8 km
Apogee: 691.1 km
Inclination: 98.5 °
Period: 97.1 minutes
Semi major axis: 6996 km
RCS: 0.3492 m2 (medium)
Launch date: August 23, 1962
Source: United States (US)
Launch site: AIR FORCE WESTERN TEST RANGE (AFWTR)
Your satellite tracking list
Your tracking list is empty





NASA's NSSDC Master Catalog

Two Line Element Set (TLE):
1   369U 62039A   17087.91404318 +.00000436 +00000-0 +57075-4 0  9992
2   369 098.5387 256.7720 0093156 173.5604 186.6829 14.83334054915649
Source of the keplerian elements: AFSPC